TimeMST,TemperatureF,Dew PointF,Humidity,Sea Level PressureIn,VisibilityMPH,Wind Direction,Wind SpeedMPH,Gust SpeedMPH,PrecipitationIn,Events,Conditions,WindDirDegrees,DateUTC
12:53 AM,41.0,37.0,86,30.03,10.0,WNW,3.5,-,0.01,Rain,Light Rain,300,2013-11-14 07:53:00
1:53 AM,41.0,36.0,82,30.05,10.0,NW,11.5,-,0.00,,Overcast,320,2013-11-14 08:53:00
2:53 AM,37.9,32.0,79,30.07,10.0,WNW,8.1,-,N/A,,Overcast,300,2013-11-14 09:53:00
3:53 AM,36.0,32.0,86,30.08,10.0,WNW,10.4,-,N/A,,Mostly Cloudy,300,2013-11-14 10:53:00
4:53 AM,32.0,28.9,88,30.10,10.0,WNW,8.1,-,N/A,,Partly Cloudy,290,2013-11-14 11:53:00
5:53 AM,33.1,30.0,89,30.11,10.0,North,3.5,-,N/A,,Scattered Clouds,350,2013-11-14 12:53:00
6:53 AM,30.9,28.0,89,30.10,10.0,North,5.8,-,N/A,,Partly Cloudy,360,2013-11-14 13:53:00
7:53 AM,35.1,32.0,89,30.08,10.0,Calm,Calm,-,N/A,,Clear,0,2013-11-14 14:53:00
8:53 AM,37.9,33.1,83,30.06,10.0,Calm,Calm,-,N/A,,Clear,0,2013-11-14 15:53:00
9:53 AM,42.1,30.9,65,30.03,10.0,Calm,Calm,-,N/A,,Clear,0,2013-11-14 16:53:00
10:53 AM,45.0,28.9,53,29.99,10.0,Calm,Calm,-,N/A,,Clear,0,2013-11-14 17:53:00
11:53 AM,48.9,30.9,50,29.92,10.0,NW,4.6,-,N/A,,Clear,320,2013-11-14 18:53:00
12:53 PM,48.0,32.0,54,29.88,10.0,WSW,3.5,-,N/A,,Clear,240,2013-11-14 19:53:00
1:53 PM,50.0,30.9,48,29.85,10.0,Calm,Calm,-,N/A,,Clear,0,2013-11-14 20:53:00
2:53 PM,51.1,28.0,41,29.83,10.0,Calm,Calm,-,N/A,,Clear,0,2013-11-14 21:53:00
3:53 PM,46.9,30.0,52,29.85,10.0,South,3.5,-,N/A,,Clear,190,2013-11-14 22:53:00
4:53 PM,42.1,30.9,65,29.88,10.0,South,5.8,-,N/A,,Clear,170,2013-11-14 23:53:00
5:53 PM,37.9,28.9,70,29.88,10.0,ESE,5.8,-,N/A,,Clear,120,2013-11-15 00:53:00
6:53 PM,37.9,28.9,70,29.87,10.0,SSE,3.5,-,N/A,,Clear,150,2013-11-15 01:53:00
7:53 PM,36.0,28.9,76,29.85,10.0,ESE,3.5,-,N/A,,Clear,110,2013-11-15 02:53:00
8:53 PM,37.9,28.9,70,29.81,10.0,SE,9.2,-,N/A,,Clear,130,2013-11-15 03:53:00
9:53 PM,41.0,28.9,62,29.75,10.0,South,10.4,-,N/A,,Clear,170,2013-11-15 04:53:00
10:53 PM,39.0,28.0,65,29.73,10.0,SSE,3.5,-,N/A,,Clear,150,2013-11-15 05:53:00
11:53 PM,37.9,28.0,68,29.68,10.0,SE,10.4,-,N/A,,Clear,140,2013-11-15 06:53:00